Probability
0 0 0 0 0 0 0 0 0 0 0 0 0 0 0 0 0 0 0 0 0 0 0 0 0 0 0 0 0 0 0 0 0 0 0 0 0 0 0 0 0 0 0 0 0 0 0 0 0
0 0 0 0 0 0 0 0 0 0 0 0 0 0 0 0 0 0 0 0 0 0 0 0 0 0 0 0 0 0 0 0 0 0 0 0 0 0 0 0 0 0 0 0 0 0 0 0 0
0 0 0 0 0 0 0 0 0 0 0 0 0 0 0 0 0 0 0 0 0 0 0 0 0 0 0 0 0 0 0 0 0 0 0 0 0 0 0 0 0 0 0 0 0 0 0 0 0
0 0 0 0 0 0 0 0 0 0 0 0 0 0 0 0 0 0 0 0 0 0 0 0 0 0 0 0 0 0 0 0 0 0 0 0 0 0 0 0 0 0 0 0 0 0 0 0 0
0 0 0 0 0 0 0 0 0 0 0 0 0 0 0 0 0 0 0 0 0 0 0 0 0 0 0 0 0 0 0 0 0 0 0 0 0 0 0 0 0 0 0 0 0 0 0 0 0
0 0 0 0 0 0 0 0 0 0 0 0 0 0 0 0 0 0 0 0 0 0 0 0 0 0 0 0 0 0 0 0 0 0 0 0 0 0 0 0 0 0 0 0 0 0 0 0 0
0 0 0 0 0 0 0 0 0 0 0 0 0 0 0 0 0 0 0 0 0 0 0 0 0 0 0 0 0 0 0 0 0 0 0 0 0 0 0 0 0 0 0 0 0 0 0 0 0
0 0 0 0 0 0 0 0 0 0 0 0 0 0 0 0 0 0 0 0 0 0 0 0 0 0 0 0 0 0 0 0 0 0 0 0 0 0 0 0 0 0 0 0 0 0 0 0 0
0 0 0 0 0 0 0 0 0 0 0 0 0 0 0 0 0 0 0 0 0 0 0 0 0 0 0 0 0 0 0 0 0 0 0 0 0 0 0 0 0 0 0 0 0 0 0 0 0
0 0 0 0 0 0 0 0 0 0 0 0 0 0 0 0 0 0 0 0 0 0 0 0 0 0 0 0 0 0 0 0 0 0 0 0 0 0 0 0 0 0 0 0 0 0 0 0 0
0 0 0 0 0 0 0 0 0 0 0 0 0 0 0 0 0 0 0 0 0 0 0 0 0 0 0 0 0 0 0 0 0 0 0 0 0 0 0 0 0 0 0 0 0 0 0 0 0
0 0 0 0 0 0 0 0 0 0 0 0 0 0 0 0 0 0 0 0 0 0 0 0 0 0 0 0 0 0 0 0 0 0 0 0 0 0 0 0 0 0 0 0 0 0 0 0 0
0 0 0 0 0 0 0 0 0 0 0 0 0 0 0 0 0 0 0 0 0 0 0 0 0 0 0 0 0 0 0 0 0 0 0 0 0 0 0 0 0 0 0 0 0 0 0 0 0
0 0 0 0 0 0 0 0 0 0 0 0 0 0 0 0 0 0 0 0 0 0 0 0 0 0 0 0 0 0 0 0 0 0 0 0 0 0 0 0 0 0 0 0 0 0 0 0 0
0 0 0 0 0 0 0 0 0 0 0 0 0 0 0 0 0 0 0 0 0 0 0 0 0 0 0 0 0 0 0 0 0 0 0 0 0 0 0 0 0 0 0 0 0 0 0 0 0
0 0 0 0 0 0 0 0 0 0 0 0 0 0 0 0 0 0 0 0 0 0 0 0 0 0 0 0 0 0 0 0 0 0 0 0 0 0 0 0 0 0 0 0 0 0 0 0 0
0 0 0 0 0 0 0 0 0 0 0 0 0 0 0 0 0 0 0 0 0 0 0 0 0 0 0 0 0 0 0 0 0 0 0 0 0 0 0 0 0 0 0 0 0 0 0 0 0
0 0 0 0 0 0 0 0 0 0 0 0 0 0 0 0 0 0 0 0 0 0 0 0 0 0 0 0 0 0 0 0 0 0 0 0 0 0 0 0 0 0 0 0 0 0 0 0 0
0 0 0 0 0 0 0 0 0 0 0 0 0 0 0 0 0 0 0 0 0 0 0 0 0 0 0 0 0 0 0 0 0 0 0 0 0 0 0 0 0 0 0 0 0 0 0 0 0
0 0 0 0 0 0 0 0 0 0 0 0 0 0 0 0 0 0 0 0 0 0 0 0 0 0 0 0 0 0 0 0 0 0 0 0 0 0 0 0 0 0 0 0 0 0 0 0 0
0 0 0 0 0 0 0 0 0 0 0 0 0 0 0 0 0 0 0 0 0 0 0 0 0 0 0 0 0 0 0 0 0 0 0 0 0 0 0 0 0 0 0 0 0 0 0 0 0
0 0 0 0 0 0 0 0 0 0 0 0 0 0 0 0 0 0 0 0 0 0 0 0 0 0 0 0 0 0 0 0 0 0 0 0 0 0 0 0 0 0 0 0 0 0 0 0 0
0 0 0 0 0 0 0 0 0 0 0 0 0 0 0 0 0 0 0 0 0 0 0 0 0 0 0 0 0 0 0 0 0 0 0 0 0 0 0 0 0 0 0 0 0 0 0 0 0
0 0 0 0 0 0 0 0 0 0 0 0 0 0 0 0 0 0 0 0 0 0 0 0 0 0 0 0 0 0 0 0 0 0 0 0 0 0 0 0 0 0 0 0 0 0 0 0 0
0 0 0 0 0 0 0 0 0 0 0 0 0 0 0 0 0 0 0 0 0 0 0 0 0 0 0 0 0 0 0 0 0 0 0 0 0 0 0 0 0 0 0 0 0 0 0 0 0
0 0 0 0 0 0 0 0 0 0 0 0 0 0 0 0 0 0 0 0 0 0 0 0 0 0 0 0 0 0 0 0 0 0 0 0 0 0 0 0 0 0 0 0 0 0 0 0 0
0 0 0 0 0 0 0 0 0 0 0 0 0 0 0 0 0 0 0 0 0 0 0 0 0 0 0 0 0 0 0 0 0 0 0 0 0 0 0 0 0 0 0 0 0 0 0 0 0
0 0 0 0 0 0 0 0 0 0 0 0 0 0 0 0 0 0 0 0 0 0 0 0 0 0 0 0 0 0 0 0 0 0 0 0 0 0 0 0 0 0 0 0 0 0 0 0 0
0 0 0 0 0 0 0 0 0 0 0 0 0 0 0 0 0 0 0 0 0 0 0 0 0 0 0 0 0 0 0 0 0 0 0 0 0 0 0 0 0 0 0 0 0 0 0 0 0
0 0 0 0 0 0 0 0 0 0 0 0 0 0 0 0 0 0 0 0 0 0 0 0 0 0 0 0 0 0 0 0 0 0 0 0 0 0 0 0 0 0 0 0 0 0 0 0 0
Height
5871 5871 5872 5874 5875 5876 5877 5879 5880 5881 5882 5884 5885 5886 5887 5888 5890 5892 5890 5889 5890 5890 5890 5890 5890 5890 5889 5889 5888 5888 5887 5887 5886 5885 5884 5883 5882 5881 5880 5879 5877 5876 5875 5874 5873 5871 5870 5869 5868
5872 5872 5873 5874 5875 5876 5877 5878 5879 5880 5882 5883 5884 5885 5886 5886 5887 5888 5888 5888 5888 5888 5888 5888 5888 5888 5888 5887 5886 5886 5885 5884 5884 5883 5882 5881 5880 5879 5877 5876 5875 5873 5872 5871 5870 5868 5867 5866 5865
5872 5872 5874 5874 5875 5876 5877 5877 5878 5879 5880 5882 5883 5884 5885 5885 5886 5886 5886 5886 5887 5887 5887 5887 5886 5886 5886 5885 5884 5884 5883 5882 5881 5880 5879 5878 5877 5876 5874 5873 5872 5870 5869 5868 5866 5865 5864 5863 5861
5872 5873 5874 5875 5874 5875 5876 5877 5877 5878 5879 5881 5882 5883 5883 5884 5884 5885 5885 5885 5885 5885 5884 5884 5884 5884 5883 5883 5882 5881 5880 5880 5878 5877 5876 5875 5874 5872 5871 5870 5868 5867 5866 5864 5863 5861 5860 5859 5858
5872 5873 5874 5874 5874 5875 5875 5876 5876 5877 5878 5879 5880 5881 5882 5883 5883 5883 5883 5883 5883 5883 5882 5882 5882 5881 5881 5880 5879 5878 5878 5876 5875 5874 5873 5872 5870 5869 5868 5866 5865 5863 5862 5860 5859 5857 5856 5855 5853
5872 5873 5873 5873 5873 5874 5874 5874 5875 5876 5877 5878 5879 5880 5880 5881 5881 5881 5881 5881 5881 5881 5880 5880 5879 5878 5878 5877 5876 5875 5874 5873 5872 5871 5870 5868 5867 5865 5864 5862 5861 5859 5858 5856 5855 5853 5852 5850 5849
5872 5872 5872 5872 5872 5873 5873 5874 5874 5875 5875 5876 5877 5878 5878 5879 5879 5879 5879 5879 5879 5878 5877 5877 5876 5875 5875 5874 5873 5872 5871 5870 5868 5867 5866 5865 5863 5862 5860 5858 5857 5855 5853 5852 5850 5849 5847 5845 5844
5870 5871 5870 5871 5871 5872 5872 5872 5873 5873 5874 5875 5875 5876 5876 5877 5877 5877 5876 5876 5876 5875 5875 5874 5873 5872 5871 5870 5869 5868 5867 5866 5865 5863 5862 5861 5859 5857 5856 5854 5852 5851 5849 5847 5846 5844 5842 5840 5839
5867 5870 5869 5869 5870 5870 5870 5871 5871 5872 5872 5873 5873 5874 5874 5874 5874 5874 5874 5873 5873 5873 5872 5871 5870 5869 5868 5867 5866 5865 5863 5862 5861 5859 5858 5856 5854 5853 5851 5849 5848 5846 5844 5843 5841 5839 5837 5835 5833
5865 5866 5866 5867 5868 5868 5869 5869 5869 5870 5870 5870 5871 5871 5871 5871 5871 5871 5870 5870 5870 5869 5868 5867 5866 5865 5864 5863 5862 5861 5859 5858 5857 5855 5853 5852 5850 5848 5847 5845 5843 5841 5839 5838 5836 5834 5832 5829 5827
5861 5862 5863 5864 5865 5866 5866 5867 5867 5867 5867 5868 5868 5868 5868 5868 5867 5867 5867 5867 5866 5865 5865 5864 5862 5861 5860 5859 5858 5856 5855 5853 5852 5850 5849 5847 5845 5843 5842 5840 5838 5836 5834 5832 5830 5828 5826 5823 5821
5857 5858 5859 5860 5861 5862 5863 5864 5865 5865 5865 5865 5865 5865 5865 5864 5864 5863 5863 5863 5862 5861 5860 5859 5858 5857 5856 5854 5853 5852 5850 5849 5847 5845 5844 5842 5840 5838 5837 5835 5833 5831 5829 5826 5824 5822 5820 5817 5815
5852 5853 5855 5856 5857 5858 5859 5860 5861 5861 5861 5861 5861 5861 5861 5861 5860 5860 5859 5858 5857 5857 5856 5855 5853 5852 5851 5849 5848 5846 5845 5843 5842 5840 5838 5837 5835 5833 5831 5829 5827 5825 5823 5820 5818 5815 5813 5810 5808
5846 5848 5850 5851 5852 5854 5855 5856 5857 5856 5857 5858 5857 5857 5857 5856 5856 5855 5855 5854 5853 5852 5851 5850 5848 5847 5846 5844 5843 5841 5840 5838 5836 5835 5833 5831 5829 5827 5825 5823 5821 5819 5817 5814 5812 5809 5806 5803 5801
5840 5842 5844 5846 5847 5848 5850 5852 5852 5851 5852 5853 5853 5853 5852 5852 5851 5851 5850 5849 5848 5847 5846 5844 5843 5842 5840 5839 5837 5836 5834 5832 5831 5829 5827 5825 5823 5821 5819 5817 5815 5812 5810 5807 5804 5802 5799 5796 5793
5834 5836 5838 5839 5840 5842 5845 5847 5845 5845 5847 5847 5848 5848 5847 5847 5846 5845 5844 5843 5842 5841 5840 5839 5837 5836 5834 5833 5831 5830 5828 5826 5824 5823 5821 5819 5817 5815 5812 5810 5808 5805 5803 5800 5797 5794 5791 5788 5785
5827 5829 5831 5832 5833 5835 5838 5841 5839 5839 5841 5842 5842 5842 5842 5841 5840 5839 5838 5837 5836 5835 5834 5832 5831 5830 5828 5827 5825 5823 5822 5820 5818 5816 5814 5812 5810 5808 5806 5803 5800 5798 5795 5792 5790 5786 5783 5780 5777
5820 5822 5823 5824 5826 5828 5830 5833 5833 5832 5834 5835 5835 5835 5835 5835 5834 5833 5832 5831 5830 5828 5827 5826 5824 5823 5821 5820 5818 5816 5815 5813 5811 5809 5807 5805 5803 5801 5798 5796 5793 5790 5788 5785 5782 5778 5775 5772 5768
5811 5814 5816 5817 5817 5820 5822 5825 5826 5825 5826 5827 5827 5827 5827 5827 5826 5826 5825 5824 5823 5822 5820 5819 5817 5816 5814 5813 5811 5809 5808 5806 5804 5802 5800 5798 5796 5793 5791 5788 5786 5783 5780 5776 5773 5770 5767 5763 5759
5803 5806 5809 5810 5810 5811 5814 5817 5819 5818 5818 5819 5819 5819 5819 5819 5819 5819 5818 5817 5816 5814 5813 5811 5810 5808 5807 5805 5804 5802 5800 5799 5797 5795 5793 5791 5788 5786 5783 5780 5778 5774 5771 5768 5764 5761 5757 5754 5750
5796 5799 5801 5802 5802 5803 5806 5810 5812 5811 5810 5810 5811 5812 5812 5812 5811 5811 5810 5809 5808 5807 5805 5804 5802 5801 5800 5798 5796 5795 5793 5791 5789 5787 5785 5783 5781 5778 5775 5772 5769 5766 5763 5759 5755 5752 5748 5744 5740
5788 5791 5792 5794 5795 5796 5798 5800 5806 5804 5803 5802 5803 5803 5803 5803 5803 5802 5802 5801 5800 5799 5798 5796 5795 5793 5792 5790 5789 5787 5785 5784 5782 5780 5778 5775 5772 5770 5767 5764 5760 5757 5753 5750 5746 5742 5738 5734 5730
5780 5783 5784 5786 5786 5788 5790 5790 5797 5797 5796 5795 5795 5795 5795 5795 5794 5794 5793 5793 5792 5791 5789 5788 5787 5785 5784 5783 5781 5779 5778 5776 5774 5772 5769 5767 5764 5761 5758 5755 5751 5747 5744 5740 5736 5732 5727 5723 5718
5773 5775 5776 5777 5778 5781 5783 5783 5786 5788 5788 5787 5787 5787 5786 5786 5786 5786 5785 5784 5783 5782 5781 5780 5779 5777 5776 5775 5773 5771 5770 5768 5766 5763 5761 5758 5755 5752 5749 5745 5742 5738 5734 5730 5725 5721 5716 5712 5707
5765 5768 5769 5770 5771 5773 5775 5775 5778 5779 5779 5779 5779 5778 5778 5778 5777 5777 5776 5775 5775 5774 5773 5772 5770 5769 5768 5767 5765 5763 5761 5759 5757 5755 5752 5749 5746 5743 5740 5736 5732 5728 5723 5719 5714 5710 5705 5700 5696
5758 5760 5762 5763 5763 5764 5765 5767 5771 5770 5770 5769 5770 5769 5769 5769 5769 5768 5767 5767 5766 5765 5764 5764 5762 5761 5760 5758 5757 5755 5753 5751 5749 5746 5743 5740 5737 5733 5730 5726 5721 5717 5712 5708 5703 5698 5693 5688 5684
5749 5751 5754 5754 5754 5755 5756 5760 5763 5762 5761 5761 5761 5761 5761 5760 5760 5760 5759 5758 5758 5757 5756 5755 5754 5753 5752 5750 5749 5747 5745 5743 5740 5737 5734 5730 5727 5723 5719 5715 5711 5706 5701 5696 5692 5687 5682 5677 5671
5741 5744 5745 5745 5746 5747 5749 5751 5754 5754 5753 5753 5752 5752 5752 5752 5752 5751 5751 5750 5749 5749 5748 5747 5746 5745 5743 5742 5740 5738 5736 5734 5731 5728 5724 5721 5717 5713 5709 5704 5700 5695 5690 5685 5680 5675 5670 5664 5659
5733 5736 5737 5738 5739 5740 5741 5745 5746 5745 5745 5745 5744 5744 5744 5744 5743 5743 5743 5742 5741 5740 5740 5739 5738 5736 5735 5734 5732 5730 5727 5725 5722 5718 5715 5711 5707 5703 5698 5693 5689 5684 5679 5674 5668 5663 5658 5652 5647
5724 5727 5729 5731 5732 5732 5733 5738 5737 5737 5736 5736 5736 5736 5736 5736 5736 5735 5734 5734 5733 5732 5731 5730 5729 5728 5727 5725 5723 5721 5718 5715 5712 5708 5705 5701 5696 5692 5687 5682 5678 5673 5667 5662 5657 5651 5646 5640 5634
Wind_Speed
6 7 8 8 10 11 12 13 12 12 12 12 11 11 10 10 11 11 11 11 11 11 11 11 12 13 13 14 15 15 16 16 17 17 18 18 18 18 18 19 19 19 19 19 19 19 20 20 20
6 7 8 9 9 10 11 11 12 12 12 11 11 10 10 10 10 10 11 11 11 11 12 12 13 14 15 15 15 16 16 17 17 17 18 18 18 19 19 19 19 18 18 19 19 19 19 18 18
5 7 8 9 9 9 10 10 11 12 12 11 11 10 10 10 10 10 10 11 12 13 13 13 14 14 15 15 15 16 17 17 18 18 19 19 19 19 19 19 19 18 18 18 18 18 19 19 19
5 7 8 9 9 9 9 10 11 12 11 11 11 11 10 10 10 10 11 11 12 12 13 14 14 15 15 16 17 18 18 19 19 19 20 20 19 19 18 18 18 18 18 19 19 20 20 20 20
6 7 8 9 9 9 9 9 10 11 11 11 11 11 11 11 11 11 11 11 12 13 14 14 15 16 17 17 18 19 19 20 20 20 20 20 19 19 19 19 20 20 20 21 21 21 22 22 22
7 7 8 9 9 9 9 9 9 9 10 10 10 11 11 11 11 12 12 13 13 14 15 16 17 18 18 19 19 20 20 20 20 20 20 20 21 21 21 21 21 21 22 22 22 23 23 23 24
8 8 9 9 9 9 9 9 9 9 9 9 9 10 10 11 11 12 13 13 14 15 16 16 16 17 18 18 19 19 20 20 20 20 21 21 21 22 22 22 22 23 23 23 23 23 24 24 25
10 10 10 10 10 10 9 9 9 8 8 8 8 9 9 10 11 11 12 13 13 14 15 15 16 17 18 19 19 20 20 20 21 21 22 22 23 23 23 23 23 23 23 23 23 24 24 25 26
13 12 12 12 11 11 10 10 10 9 9 9 9 9 9 10 11 12 12 13 14 15 16 17 18 19 19 20 20 21 21 22 22 23 23 23 23 23 23 23 23 23 23 23 24 24 25 26 27
16 15 15 14 13 12 12 11 11 10 10 10 10 10 11 11 12 13 13 14 15 16 17 18 19 20 21 21 22 22 23 23 24 24 24 24 24 24 24 24 24 24 24 24 25 25 26 27 27
19 18 18 17 16 15 14 13 13 13 13 12 12 12 12 13 14 14 15 16 16 17 18 19 20 21 22 22 23 24 24 25 25 25 25 25 25 25 24 24 25 25 25 26 26 27 27 28 28
22 21 21 20 19 18 17 16 15 15 16 15 14 14 15 15 16 17 17 18 18 19 19 20 21 22 22 23 24 24 25 26 26 26 26 26 26 26 26 25 26 26 26 27 27 28 29 29 30
26 25 23 23 22 21 20 19 18 19 19 17 17 17 17 17 18 19 19 20 20 20 21 22 23 23 24 24 25 25 26 27 27 27 27 27 27 27 27 27 27 27 28 28 29 30 30 31 31
28 28 27 26 25 24 23 22 21 22 22 20 20 19 19 19 20 20 21 22 22 22 23 23 24 25 25 25 26 26 27 28 28 28 28 28 28 28 28 28 29 29 29 30 31 31 32 32 33
30 30 29 29 28 27 26 24 25 26 25 23 23 22 22 22 22 23 23 24 24 24 24 25 25 25 26 27 27 28 29 29 29 29 29 29 29 29 29 30 30 31 31 32 32 33 33 34 34
33 32 31 32 32 31 30 26 29 28 27 26 26 25 25 25 25 25 26 26 26 26 26 26 27 27 27 28 29 29 30 30 30 30 30 30 30 30 31 31 32 32 33 33 34 35 35 36 36
35 34 34 35 35 34 33 29 32 31 30 29 29 28 28 28 28 28 28 28 28 28 28 28 28 29 29 30 30 31 31 31 31 31 31 31 32 32 33 33 33 34 34 35 36 37 37 38 38
36 36 35 36 36 36 35 31 33 34 33 31 32 32 31 31 31 30 30 30 30 30 30 30 30 30 30 31 31 32 32 32 32 32 32 32 33 33 34 34 34 35 36 37 37 38 39 39 39
37 37 36 36 38 38 37 34 33 35 35 34 34 34 34 33 33 32 32 31 31 31 31 31 31 31 31 32 32 32 33 33 33 33 33 33 34 34 35 35 36 36 37 38 39 40 40 40 41
37 36 36 37 39 40 38 35 33 35 35 35 35 35 35 34 34 33 33 32 32 32 32 32 32 32 32 32 33 33 33 33 33 34 34 34 35 35 35 36 37 38 39 40 41 41 41 42 42
37 36 36 38 40 41 40 36 33 35 36 36 36 35 35 35 35 35 33 33 32 32 32 32 33 33 33 33 33 33 33 34 34 34 34 35 36 36 37 37 38 40 41 42 42 43 43 43 44
37 36 37 38 39 40 39 38 32 33 35 36 35 35 35 35 35 35 34 34 34 33 33 33 33 33 33 33 33 33 34 34 35 35 35 36 36 37 38 39 40 41 42 43 44 44 45 45 46
36 36 37 37 38 39 37 38 32 31 33 34 35 35 35 35 35 35 35 35 34 34 33 33 33 33 33 33 33 33 34 34 35 35 36 36 37 38 39 40 41 42 43 44 46 46 47 47 47
36 36 37 37 38 38 35 37 35 31 32 33 35 35 35 35 36 36 36 36 35 34 33 33 33 33 33 33 33 34 34 34 35 36 37 37 38 39 40 41 42 43 45 46 47 47 48 48 48
36 35 37 38 38 39 36 36 35 32 32 32 33 34 35 35 36 36 35 35 34 33 33 33 33 33 33 33 33 34 34 35 35 36 37 38 39 40 41 42 44 45 46 47 48 48 49 49 49
35 36 36 37 38 38 36 35 32 31 31 32 32 33 33 34 34 35 34 34 33 32 32 32 31 32 32 32 33 34 35 35 35 36 38 39 40 42 43 44 45 47 47 48 49 49 49 49 50
37 36 35 38 39 38 37 34 31 30 31 31 32 32 32 33 33 33 32 32 32 31 31 31 31 31 32 32 33 34 34 35 36 37 39 40 41 43 44 46 47 48 48 49 49 49 50 50 51
37 36 36 37 38 38 37 33 30 29 29 30 31 31 31 32 31 31 31 31 30 30 31 31 31 31 32 32 32 33 34 35 37 39 40 42 43 45 46 47 48 49 49 49 49 50 50 51 51
37 37 37 37 38 37 36 33 29 28 29 29 30 30 30 30 29 29 29 29 30 30 30 30 30 30 31 32 33 34 35 37 39 40 42 44 45 46 47 47 48 49 49 49 50 50 51 52 52
38 37 36 37 36 36 36 34 29 28 29 29 29 30 30 29 29 29 29 29 30 29 29 30 30 31 32 33 34 35 36 38 40 42 43 44 45 46 47 47 48 49 49 50 50 51 52 53 53
Wind_Direction
128 133 138 147 157 167 176 183 189 193 195 199 202 206 210 216 223 229 233 237 242 247 254 260 266 271 275 278 281 284 287 288 289 290 291 292 292 292 292 291 291 292 292 293 293 293 294 295 295
127 133 140 145 151 163 175 181 187 190 193 197 201 208 214 220 225 230 236 242 247 253 258 264 269 274 277 280 283 285 288 290 291 291 292 293 294 293 293 292 292 293 293 293 293 294 295 295 296
134 137 142 147 153 165 176 182 187 190 194 197 202 209 215 221 227 232 238 245 251 256 261 267 271 275 278 281 284 286 289 291 292 293 293 294 294 293 293 293 293 293 293 293 293 294 294 294 294
149 148 150 154 160 170 179 186 192 196 198 201 204 210 217 224 230 237 243 249 254 258 263 269 273 276 280 283 286 288 289 291 292 292 293 293 293 293 293 293 292 292 292 292 291 291 291 291 290
164 160 159 161 167 174 181 186 194 200 203 206 210 215 222 229 235 241 246 252 257 262 267 271 274 278 281 283 285 286 288 290 290 291 291 291 291 291 291 290 290 290 290 289 289 288 288 288 288
179 172 170 171 175 179 182 186 192 199 207 212 216 220 226 232 238 244 249 256 261 265 270 273 275 278 280 282 284 286 288 288 289 288 289 289 289 288 288 288 288 288 288 288 288 288 287 287 286
194 188 185 184 184 186 186 188 192 197 205 211 218 224 230 237 244 249 254 260 264 268 272 275 277 279 281 283 285 287 287 288 288 288 288 289 289 288 288 288 288 288 288 288 288 288 288 287 286
206 200 198 197 196 196 194 194 195 199 205 212 223 231 237 244 251 257 261 266 269 272 275 277 279 281 283 284 286 287 287 287 288 289 289 289 289 288 288 288 288 288 288 288 289 289 289 289 288
214 209 207 206 205 206 204 204 205 207 214 223 232 240 245 251 257 261 265 269 272 275 277 279 281 282 283 284 286 287 287 287 289 289 290 290 289 288 288 288 288 288 289 289 290 290 290 290 289
220 217 216 215 214 214 215 215 216 219 225 232 240 248 253 257 261 265 269 273 276 278 280 282 283 283 284 285 286 287 287 288 289 289 289 289 289 288 288 288 288 288 289 290 291 291 291 291 291
225 223 223 222 221 222 222 224 227 230 235 238 245 252 258 262 266 270 273 276 278 280 281 283 283 283 284 285 287 287 287 288 288 288 288 288 288 288 287 288 288 289 290 291 292 292 292 292 291
229 229 228 228 227 228 228 230 233 237 241 243 248 253 259 264 268 273 276 279 280 281 283 284 284 284 284 285 286 287 288 288 288 288 287 287 287 287 287 287 288 289 290 291 292 293 293 293 292
232 233 232 232 232 232 234 236 239 244 246 248 251 255 260 264 269 273 277 280 281 283 284 285 286 285 284 284 285 286 287 288 288 287 286 286 286 287 287 288 288 289 291 291 292 293 293 292 292
234 235 236 236 236 237 238 240 243 247 250 251 253 257 261 265 269 273 276 279 281 283 285 285 285 285 285 284 285 286 287 287 287 287 287 286 286 286 287 288 289 290 291 292 293 293 293 293 293
237 237 239 240 241 241 242 243 246 249 253 254 256 258 261 264 268 271 275 278 281 283 284 285 285 284 284 285 285 286 286 286 286 286 286 286 286 287 288 288 289 290 291 292 293 294 294 294 294
239 240 242 243 244 244 245 245 250 251 254 257 259 261 262 264 267 270 274 277 280 282 284 285 284 283 284 284 285 285 286 286 285 285 285 285 286 288 288 289 290 291 292 293 294 294 294 295 295
241 242 244 247 248 248 248 247 252 254 255 258 260 262 263 265 267 269 272 276 279 281 283 284 283 283 284 285 285 286 286 285 284 284 285 285 287 288 289 289 290 291 292 293 294 294 294 295 295
242 243 244 248 249 250 251 250 253 257 258 260 262 263 265 266 267 269 272 276 278 280 282 282 282 283 284 285 285 285 285 285 285 284 284 286 287 288 289 289 290 291 292 293 294 294 295 295 295
243 245 246 248 250 251 252 252 254 259 260 261 262 264 266 267 268 270 272 275 278 279 280 280 280 282 284 285 285 285 284 285 285 284 285 286 287 288 289 289 290 292 293 294 294 295 296 296 295
244 246 248 249 252 253 253 253 254 258 262 262 263 264 266 268 270 272 272 275 277 278 278 279 279 281 282 283 284 284 284 284 284 284 285 287 288 289 289 290 291 293 294 295 296 296 296 296 296
245 247 249 251 253 255 256 255 256 259 262 263 263 265 267 269 270 272 273 275 276 277 277 278 278 279 280 282 283 283 284 283 284 284 286 287 288 289 290 291 293 294 295 296 296 297 296 296 296
247 248 250 252 254 256 258 259 255 258 261 263 264 266 267 269 270 271 273 275 276 276 277 277 278 278 279 281 281 282 283 283 284 285 287 287 288 290 291 292 294 295 296 296 297 297 297 297 297
247 248 251 253 255 257 259 263 258 257 259 262 265 266 268 269 270 272 274 275 275 275 275 276 277 277 278 280 281 282 283 283 284 285 287 288 289 290 292 293 294 295 296 297 297 297 297 297 297
247 250 252 254 256 258 259 263 263 261 260 262 264 265 267 268 270 272 273 274 274 274 275 275 276 277 278 280 280 281 282 283 284 285 286 288 289 290 292 293 295 296 297 297 298 298 298 298 297
247 250 253 256 257 260 261 263 265 266 264 264 264 266 267 268 270 272 273 273 274 274 274 275 275 276 278 279 280 281 282 283 284 286 287 288 289 291 292 294 295 296 297 298 298 298 298 298 298
246 249 253 258 260 261 261 262 266 268 267 266 266 266 268 269 271 272 273 273 274 274 274 275 275 276 277 278 280 281 283 284 285 286 288 289 290 291 293 294 296 297 297 298 298 298 298 298 298
243 247 252 257 259 262 263 264 265 268 269 268 268 269 270 271 272 273 272 272 273 274 274 274 275 276 277 279 280 282 283 284 286 287 289 290 291 292 294 295 296 297 298 298 298 298 299 299 299
242 246 250 254 259 263 265 266 268 267 269 271 271 272 272 272 273 273 272 273 274 274 275 276 276 277 278 279 280 282 283 285 286 287 288 290 292 293 295 296 297 297 298 299 299 299 300 300 300
242 245 249 254 258 264 267 268 268 270 271 272 272 272 272 272 273 273 273 274 275 276 276 276 276 277 278 279 281 282 284 285 286 287 289 291 293 294 295 296 297 298 299 299 300 300 300 301 301
241 245 250 255 260 262 266 268 270 272 272 271 271 272 273 273 274 274 274 274 275 276 276 276 277 278 280 281 282 283 284 285 286 288 291 293 294 295 296 297 298 299 299 300 300 300 301 301 302